Showing default

QIANFAN-1, 60379

Orbit data source: Space-Track

QIANFAN-1, 60379 is a Chinese payload satellite in LEO that was launched on Tue, 06 Aug 2024 UTC via a CHANG ZHENG 6A launch vehicle from the Taiyaun Space Center, China (TSC). Payload-class satellites include a variety of spacecraft equipped with specific instruments for various scientific and technological missions. These include communications satellites like Starlink; space stations such as the ISS; scientific satellites like the Hubble; Earth observation satellites from companies like Planet Labs, Umbra, and HawkEye 360; GPS; miniature CubeSats for education and research; and military/defense satellites.

Loading next visibility...
Identifier
60379, 2024-140A
Orbit
LEO
Country
Flag of CNCN / PRC
Related business
Manufacturer
SECM
Mission
Operational Commercial Communications
Bus & Motor
QIANFAN, Unknown motor
Mass
267 kg wet, ~267 kg dry
Launch date (UTC)
2024-08-06 (1 year ago)
Launch vehicle
CHANG ZHENG 6A
Launch site
Taiyaun Space Center, China (TSC)
Object type
Payload
Rocket body
Debris
Shape & HBR
Box + 1 Pan, 5.0 m
Radar Cross Section
13.200 m², Large (>1 m²)

Expand to show TLE details & history
Last TLE update: 6 hours ago

TLE from 6 hours ago
0 QIANFAN-1
1 60379U 24140A   25311.28977717  .00000039  00000-0  41239-4 0  9991
2 60379  88.9728 302.9563 0016342 323.1219  36.8807 13.50978351 62567
Epoch: 2025-11-07T06:57Z
TLE epoch observation values (Epoch: 2025-11-07T06:57:16.747Z)
Latitude
-0.00004°
Longitude
151.90065°
Altitude
1,061.885 km
Speed
7.326 km/s
True Right ascension
20h 11m 49s
True Declination
0° 00' 00"
Sunlit
Object was in daylight at epoch
Visualization orbit readout
Latitude
Unknown
Longitude
Unknown
Altitude
Unknown
Speed
Unknown
Apparent Right ascension
Unknown
Apparent Declination
Unknown
Sunlit
N/A
Visualization observer readout
Local Sidereal Time
08:54:51
Azimuth
Unknown
Elevation
Unknown
Doppler factor
Unknown
Orbital elements
Apogee altitude
1,077.877 km
Perigee altitude
1,053.548 km
Semi-major axis
7,443.849 km
Eccentricity
0.00163
Inclination
88.9728°
RAAN
302.9563°
Arg. of periapsis
323.1219°
True anomaly
36.99327°
Mean anomaly
36.8807°
Eccentric anomaly
36.93697°
Mean motion
3.37946 °/min
Orbital period
106.53 mins
BSTAR
0.000041239
Loading maneuver chart data...
Computing Atmospheric mass density...
Loading historical data...
Loading historical data...
Loading historical data...
Loading historical data...
Loading historical data...
Loading historical data...
Loading historical data...

Documentation

Showing up to 5 results
|